La Palma > ESTACION METEOROLÓGICA Las Manchas de Abajo - Los Llanos

DATOS ACTUALES Online

Ultima actulizacion 27 minutos

18.6 ºC

Temperatura

93

Humedad (%)

1023

Presión (mb)

0

Precipitación (mm)

0 NNW

Viento (Km/h)
2.1 Racha máxima

GRÁFICA DIARIA

Temperatura últimas 24 horas (ºC)

Humedad últimas 24 horas (%)

Presión atmosférica últimas 24 horas (mb)

Precipitaciones últimas 23 horas (mm)

Viento últimas 24 horas (Km/h)

Hora Temperatura (°C) ºC Precipitación (mm) mm Presión (mb) mb Humedad (%) % Viento (Km/h) km/h
27 - 03:00 15 0 1022 86 0 ENE
27 - 04:00 14.9 0 1022 79 0 ENE
27 - 05:00 14.8 0 1022 77 0 ENE
27 - 06:00 14.6 0 1022 75 0 E
27 - 07:00 16 0 1022 79 1.1 E
27 - 08:00 14.9 0 1022 74 0 NE
27 - 09:00 19.8 0 1023 79 0.6 NE
27 - 10:00 19.3 0 1024 83 1.1 WSW
27 - 11:00 20 0 1024 81 18 WSW
27 - 12:00 20.6 0 1023 81 6.4 NE
27 - 13:00 20.6 0 1024 82 10.1 NW
27 - 14:00 20.6 0 1024 81 6.9 WNW
27 - 15:00 20.2 0 1023 83 14 SW
27 - 16:00 20.8 0 1023 80 11.1 NW
27 - 17:00 21 0 1023 79 15.4 NW
27 - 18:00
27 - 19:00 20 0 1023 83 7.6 WSW
27 - 20:00 19.6 0 1023 85 6.1 W
27 - 21:00 18.6 0 1023 88 0 NNE
27 - 22:00 18.6 0 1023 91 1.1 NE
27 - 23:00 18.2 0 1024 92 0.6 N
28 - 00:00 17.7 0 1023 92 0 E
28 - 01:00 18.2 0 1023 91 0 E
28 - 02:00 18.3 0 1023 92 0 NNW
28 - 03:00 18.6 0 1023 93 0 NNW
Apalmet utiliza cookies propias y de terceros para mejorar la usabilidad y la experiencia web. Política de cookies.